ARIANE 2 DEB, 33582

Orbit data source: Space-Track

ARIANE 2 DEB, 33582 is space debris in HEO originally from a launch on Fri, 27 Jan 1989 UTC launched from the French Guiana (FRGUI). Debris objects in space refer to the collection of defunct objects orbiting the Earth. Examples of debris include non-operational satellites, rocket bodies, and fragments generated from explosions, collisions, or faulty payload assembly.

Loading next visibility...
Identifier
33582, 1989-006CA
Orbit
HEO
Country
Flag of FRFR
Related business
Manufacturer
EADS/LV
Mission
Spacecraft
Bus & Motor
Unknown
Mass
Unknown
Launch date (UTC)
1989-01-27 (37 years ago)
Launch vehicle
Unknown
Launch site
French Guiana (FRGUI)
Object type
Payload
Rocket body
Debris
Shape & HBR
Unknown shape, 1.1 m
Radar Cross Section
Small (<0.1 m²)

Expand to show TLE details & history
Last TLE update: 9 months ago

TLE from 9 months ago
0 ARIANE 2 DEB
1 33582U 89006CA  25186.06835003 -.00000420  00000-0  00000-0 0  9998
2 33582   8.3998 346.1614 5956790 343.0063   3.3561  2.03014303137752
Epoch: 2025-07-05T01:38Z
TLE epoch observation values (Epoch: 2025-07-05T01:38:25.442Z)
Latitude
0.00012°
Longitude
38.23073°
Altitude
4,459.71 km
Speed
7.644 km/s
True Right ascension
23h 04m 35s
True Declination
0° 00' 00"
Sunlit
Object was in daylight at epoch
Visualization orbit readout
Latitude
Unknown
Longitude
Unknown
Altitude
Unknown
Speed
Unknown
Apparent Right ascension
Unknown
Apparent Declination
Unknown
Sunlit
N/A
Visualization observer readout
Local Sidereal Time
02:50:45
Azimuth
Unknown
Elevation
Unknown
Doppler factor
Unknown
Orbital elements
Apogee altitude
35,666.895 km
Perigee altitude
4,275.44 km
Semi-major axis
26,349.305 km
Eccentricity
0.59568
Inclination
8.3998°
RAAN
346.1614°
Arg. of periapsis
343.0063°
True anomaly
16.32345°
Mean anomaly
3.3561°
Eccentric anomaly
8.2585°
Mean motion
0.50745 °/min
Orbital period
709.44 mins
BSTAR
0
Loading maneuver chart data...
Computing Atmospheric mass density...
Loading historical data...
Loading historical data...
Loading historical data...
Loading historical data...
Loading historical data...
Loading historical data...
Loading historical data...

Documentation

Showing up to 5 results
|